User: anonymous   Login
Location: Unspecified
(0.0000°N, 0.0000°E)
Time: 08:52:00
(UTC+00:00)
Language:

Polar BEAR P87-1 - Orbit

View from above orbital plane
View from above orbital plane
View from above satellite
View from above satellite

Ground track
Ground track

The orbit data is extracted from the following two-line orbital elements,

1 17070U 86088A   18350.94129175 +.00000042 +00000-0 +32224-4 0  9993
2 17070 089.5273 300.0007 0036680 256.0496 170.8565 13.74768392609014
Epoch (UTC): 16 December 2018 22:35:27
Eccentricity: 0.0036680
inclination: 89.5273°
perigee height: 955 km
apogee height: 1009 km
right ascension of ascending node: 300.0007°
argument of perigee: 256.0496°
revolutions per day: 13.74768392
mean anomaly at epoch: 170.8565°
orbit number at epoch: 60901

The dashed part of the orbit path shows where the satellite is in the earth's shadow,  

DLR